EW3027 Weather Reports


Display with metric or nautical units.
time (UTC)temp
F
wind
direction
speed
MPH
gust
MPH
rain 1hr
in
rain 24hr
in
rain mn
in
humidity
%
barometer
mb
20260902222218 58 0.0 0.0 0.05 0.37 0.37 94 1007.3
20260902221218 58 0.0 0.0 0.03 0.35 0.35 94 1007.2
20260902220218 59 0.0 0.0 0.03 0.34 0.34 95 1007.0
20260902215219 59 0.0 0.0 0.01 0.32 0.32 95 1007.1
20260902214239 59 0.0 0.0 0.02 0.32 0.32 95 1007.0
20260902213218 59 0.0 0.0 0.02 0.32 0.32 94 1007.0
20260902212259 59 0.0 0.0 0.02 0.32 0.32 95 1007.1
20260902211219 59 0.0 0.0 0.02 0.32 0.32 94 1007.0
20260902210238 59 0.0 0.0 0.01 0.31 0.31 95 1006.9
20260902205219 59 0.0 0.0 0.01 0.31 0.31 95 1006.8
20260902204239 60 0.0 0.0 0.00 0.30 0.30 95 1006.9
20260902203219 59 0.0 0.0 0.01 0.30 0.30 95 1006.8
20260902202218 59 0.0 0.0 0.01 0.30 0.30 95 1006.7
20260902201218 59 0.0 0.0 0.01 0.30 0.30 95 1006.7
20260902200239 59 0.0 0.0 0.01 0.30 0.30 95 1006.6
20260902195222 59 0.0 0.0 0.02 0.30 0.30 95 1006.6
20260902194218 58 0.0 0.0 0.02 0.30 0.30 95 1006.6
20260902193218 58 0.0 0.0 0.01 0.29 0.29 95 1006.5
20260902192218 58 0.0 0.0 0.02 0.29 0.29 95 1006.5
20260902191218 58 0.0 0.0 0.02 0.29 0.29 95 1006.5
20260902190218 58 0.0 0.0 0.03 0.29 0.29 95 1006.6
20260902185218 58 0.0 0.0 0.02 0.28 0.28 94 1006.5
20260902184219 58 0.0 0.0 0.03 0.28 0.28 95 1006.5
20260902183218 58 0.0 0.0 0.06 0.28 0.28 95 1006.6
20260902182239 57 0.0 0.0 0.09 0.27 0.27 94 1006.6
20260902181218 57 0.0 0.0 0.15 0.27 0.27 94 1006.6
20260902180218 57 0.0 0.0 0.18 0.26 0.26 94 1006.7
20260902175218 57 0.0 0.0 0.21 0.26 0.26 93 1006.7
20260902174219 57 0.0 0.0 0.21 0.25 0.25 93 1006.8
20260902173218 57 0.0 0.0 0.18 0.22 0.22 93 1007.0
20260902172218 57 0.0 0.0 0.14 0.18 0.18 92 1006.8
20260902171218 57 0.0 0.0 0.09 0.12 0.12 92 1006.9
20260902170218 57 0.0 0.0 0.06 0.08 0.08 91 1006.7
20260902165239 57 0.0 0.0 0.05 0.05 0.05 91 1006.5
20260902164300 58 0.0 0.0 0.04 0.04 0.04 90 1006.4
20260902163218 58 0.0 0.0 0.04 0.04 0.04 90 1006.4
20260902162218 58 0.0 0.0 0.04 0.04 0.04 88 1006.6
20260902161219 58 0.0 0.0 0.03 0.03 0.03 86 1006.7
20260902160218 59 0.0 0.0 0.02 0.02 0.02 83 1006.7
20260902155218 60 0.0 0.0 0.00 0.00 0.00 80 1006.8
20260902154218 60 0.0 0.0 0.00 0.00 0.00 79 1006.8
20260902153218 60 0.0 0.0 0.00 0.00 0.00 80 1006.8
20260902152218 59 0.0 0.0 0.00 0.00 0.00 81 1006.9
20260902151218 59 0.0 0.0 0.00 0.00 0.00 82 1006.9
20260902150218 59 0.0 0.0 0.00 0.00 0.00 82 1006.9
20260902145218 59 0.0 0.0 0.00 0.00 0.00 83 1006.9
20260902144218 58 0.0 0.0 0.00 0.00 0.00 84 1007.1
20260902143218 58 0.0 0.0 0.00 0.00 0.00 85 1007.2
20260902142218 58 0.0 0.0 0.00 0.00 0.00 85 1007.4
20260902141218 58 0.0 0.0 0.00 0.00 0.00 86 1007.5
20260902140218 58 0.0 0.0 0.00 0.00 0.00 86 1007.5
20260902135218 58 0.0 0.0 0.00 0.00 0.00 87 1007.7
20260902134218 57 0.0 0.0 0.00 0.00 0.00 87 1007.8
20260902133218 57 0.0 0.0 0.00 0.00 0.00 88 1007.9
20260902132218 57 0.0 0.0 0.00 0.00 0.00 88 1007.9
20260902131238 57 0.0 0.0 0.00 0.00 0.00 88 1008.1
20260902130218 57 0.0 0.0 0.00 0.00 0.00 88 1008.2
20260902125218 57 0.0 0.0 0.00 0.00 0.00 88 1008.4
20260902124218 57 0.0 0.0 0.00 0.00 0.00 88 1008.4
20260902123218 57 0.0 0.0 0.00 0.00 0.00 88 1008.5
20260902122217 57 0.0 0.0 0.00 0.00 0.00 88 1008.7
20260902121239 57 0.0 0.0 0.00 0.00 0.00 87 1008.8
20260902120218 58 0.0 0.0 0.00 0.00 0.00 87 1008.9
20260902115218 58 0.0 0.0 0.00 0.00 0.00 88 1009.1
20260902114218 58 0.0 0.0 0.00 0.00 0.00 88 1009.2
20260902113218 58 0.0 0.0 0.00 0.00 0.00 88 1009.3
20260902112218 58 0.0 0.0 0.00 0.00 0.00 88 1009.4
20260902111217 57 0.0 0.0 0.00 0.00 0.00 88 1009.6
20260902110238 57 0.0 0.0 0.00 0.00 0.00 88 1009.7
20260902105218 57 0.0 0.0 0.00 0.00 0.00 88 1009.8
20260902104218 57 0.0 0.0 0.00 0.00 0.00 88 1009.8
20260902103218 57 0.0 0.0 0.00 0.00 0.00 87 1009.9
20260902102218 57 0.0 0.0 0.00 0.00 0.00 87 1010.0
20260902101239 58 0.0 0.0 0.00 0.00 0.00 88 1010.0
20260902100217 58 0.0 0.0 0.00 0.00 0.00 87 1010.1
20260902095217 58 0.0 0.0 0.00 0.00 0.00 87 1010.1
20260902094218 58 0.0 0.0 0.00 0.00 0.00 87 1010.3
20260902093218 58 0.0 0.0 0.00 0.00 0.00 87 1010.4
20260902092218 58 0.0 0.0 0.00 0.00 0.00 87 1010.6
20260902091239 58 0.0 0.0 0.00 0.00 0.00 87 1010.7
20260902090238 58 0.0 0.0 0.00 0.00 0.00 88 1010.7
20260902085217 58 0.0 0.0 0.00 0.00 0.00 87 1010.9
20260902084217 57 0.0 0.0 0.00 0.00 0.00 87 1010.9
20260902083217 57 0.0 0.0 0.00 0.00 0.00 88 1011.0
20260902082217 57 0.0 0.0 0.00 0.00 0.00 87 1011.0
20260902081217 57 0.0 0.0 0.00 0.00 0.00 87 1011.0
20260902080218 57 0.0 0.0 0.00 0.00 0.00 86 1011.0
20260902075217 58 0.0 0.0 0.00 0.00 0.00 86 1011.1
20260902074238 58 0.0 0.0 0.00 0.00 0.00 85 1011.1
20260902073217 58 0.0 0.0 0.00 0.00 0.00 85 1011.1
20260902072218 59 0.0 0.0 0.00 0.00 0.00 84 1011.2
20260902071217 59 0.0 0.0 0.00 0.00 0.00 84 1011.2
20260902070217 59 0.0 0.0 0.00 0.00 0.00 83 1011.2
20260902065217 60 0.0 0.0 0.00 0.00 0.00 83 1011.2
20260902064237 60 0.0 0.0 0.00 0.00 0.00 83 1011.4
20260902063217 60 0.0 0.0 0.00 0.00 0.00 82 1011.4
20260902062217 60 0.0 0.0 0.00 0.00 0.00 82 1011.6
20260902061217 61 0.0 0.0 0.00 0.00 0.00 82 1011.7
20260902060238 61 0.0 0.0 0.00 0.00 0.00 81 1011.8
20260902055217 61 0.0 0.0 0.00 0.00 0.00 80 1011.9
20260902054217 61 0.0 0.0 0.00 0.00 0.00 80 1012.0
20260902053217 61 0.0 0.0 0.00 0.00 0.00 80 1012.2
20260902052216 61 0.0 0.0 0.00 0.00 0.00 80 1012.1
20260902051237 61 0.0 0.0 0.00 0.00 0.00 80 1012.2
20260902050216 61 0.0 0.0 0.00 0.00 0.00 80 1012.2
20260902045217 61 0.0 0.0 0.00 0.00 0.00 80 1012.2
20260902044217 62 0.0 0.0 0.00 0.00 0.00 79 1012.2
20260902043238 62 0.0 0.0 0.00 0.00 0.00 79 1012.1
20260902042217 62 0.0 0.0 0.00 0.00 0.00 78 1012.1
20260902041218 62 0.0 0.0 0.00 0.00 0.00 78 1011.9
20260902040339 62 0.0 0.0 0.00 0.00 0.00 77 1011.9
20260902035219 62 0.0 0.0 0.00 0.00 0.00 77 1011.7
20260902034219 63 0.0 0.0 0.00 0.00 0.00 76 1011.6
20260902033219 63 0.0 0.0 0.00 0.00 0.00 76 1011.6
20260902032216 63 0.0 0.0 0.00 0.00 0.00 75 1011.6
20260902031219 63 0.0 0.0 0.00 0.00 0.00 75 1011.5
20260902030219 64 0.0 0.0 0.00 0.00 0.00 74 1011.4
20260902025219 64 0.0 0.0 0.00 0.00 0.00 74 1011.5
20260902024219 64 0.0 0.0 0.00 0.00 0.00 73 1011.5
20260902023218 64 0.0 0.0 0.00 0.00 0.00 73 1011.6
20260902022219 64 0.0 0.0 0.00 0.00 0.00 73 1011.6
20260902021219 65 0.0 0.0 0.00 0.00 0.00 72 1011.5
20260902020219 65 0.0 0.0 0.00 0.00 0.00 72 1011.5
20260902015240 65 0.0 0.0 0.00 0.00 0.00 71 1011.4
20260902014218 65 0.0 0.0 0.00 0.00 0.00 71 1011.4
20260902013219 66 0.0 0.0 0.00 0.00 0.00 69 1011.3
20260902012219 66 0.0 0.0 0.00 0.00 0.00 69 1011.4
20260902011219 66 0.0 0.0 0.00 0.00 0.00 68 1011.3
20260902010219 66 0.0 0.0 0.00 0.00 0.00 69 1011.3
20260902005218 66 0.0 0.0 0.00 0.00 0.00 69 1011.1
20260902004219 66 0.0 0.0 0.00 0.00 0.00 68 1011.1
20260902003219 66 0.0 0.0 0.00 0.00 0.00 68 1011.1
20260902002218 66 0.0 0.0 0.00 0.00 0.00 67 1011.1
20260902001219 67 0.0 0.0 0.00 0.00 0.00 68 1011.0
20260902000219 66 0.0 0.0 0.00 0.00 0.00 68 1010.9
20260901235217 67 0.0 0.0 0.00 0.00 0.00 67 1011.0
20260901234240 67 0.0 0.0 0.00 0.00 0.00 66 1010.9
20260901233219 67 0.0 0.0 0.00 0.00 0.00 66 1011.0
20260901232219 68 0.0 0.0 0.00 0.00 0.00 65 1011.0
20260901231238 68 0.0 0.0 0.00 0.00 0.00 64 1011.0
20260901230218 68 0.0 0.0 0.00 0.00 0.00 64 1011.0
20260901225218 68 0.0 0.0 0.00 0.00 0.00 64 1011.2
20260901224218 67 0.0 0.0 0.00 0.00 0.00 65 1011.2
20260901223219 67 0.0 0.0 0.00 0.00 0.00 66 1011.3